Location: Salillas
(41.9950°N, 0.2228°W)
Time: 08:42:56
(UTC+00:00)

Aureole 3 - Pass Details

Date: 29 March 2020
Orbit: 381 x 1235 km, 82.5° (Epoch: 03 June)

Event Time Altitude Azimuth Distance (km) Brightness Sun altitude
Exits shadow 20:37:25 26° 218° (SW) 1,103 4.9 -24.3°
Maximum altitude 20:39:23 52° 283° (WNW) 753 4.2 -24.6°
Drops below altitude 10° 20:44:07 10° 360° (N) 2,214 6.8 -25.4°
Sets 20:46:49 0° 5° (N) 3,299 7.6 -25.8°
